ロニオス-クリステンセン彗星

P/2005 RV25 ( LONEOS-Christensen )

English version
Home page
Updated on January 14, 2007

---------------------------------------------------------------------

・ プロフィール

発見日 2005年9月11日、10月22日
発見光度 17.7等、18.3等
発見者 Lowell Observatory Near-Earth Object Search, Eric Christensen (Mt. Lemmon Survey)

・ 軌道要素

The following orbital elements are taken from MPC 55978:

Epoch 2006 Nov. 1.0 TT = JDT 2454040.5
T 2006 Nov. 7.3870 TT                                   MPC
q   3.607896             (2000.0)            P               Q
n   0.1094774      Peri.  191.7040      +0.1998332      -0.9670198
a   4.327659       Node   246.9308      +0.9122591      +0.2424356
e   0.166317       Incl.    9.8837      +0.3575612      -0.0780884
P   9.00
From 101 observations 2005 Sept. 11-2006 Jan. 28, mean residual 0".7.

・ 光度変化

        m1 = -39.5 + 5 logΔ + 100 log r(t + 400)

---------------------------------------------------------------------

軌道要素はMPCのEphemerides and Orbital Elementsに掲載されたものです。
光度グラフはComet for Windowsで作成したものです。

---------------------------------------------------------------------

Copyright(C) Seiichi Yoshida (comet@aerith.net). All rights reserved.